| time (UTC) | temp F | wind direction | speed MPH | gust MPH | rain 1hr in | rain 24hr in | rain mn in | humidity % | barometer mb |
| 20260507043011 | 46 | 306 | 2.0 | 4.0 | 0.00 | 1.02 | 0.99 | 62 | 1003.8 |
| 20260507041503 | 46 | 271 | 1.0 | 3.0 | 0.00 | 1.02 | 0.99 | 67 | 1003.7 |
| 20260507034553 | 46 | 279 | 2.0 | 8.0 | 0.00 | 1.02 | 0.99 | 75 | 1003.6 |
| 20260507033051 | 46 | 302 | 4.0 | 9.0 | 0.00 | 1.02 | 0.99 | 75 | 1003.5 |
| 20260507031546 | 46 | 242 | 4.0 | 11.0 | 0.00 | 1.02 | 0.99 | 76 | 1003.5 |
| 20260507030038 | 47 | 235 | 3.0 | 9.0 | 0.00 | 1.02 | 0.99 | 74 | 1003.6 |
| 20260507024537 | 47 | 234 | 3.0 | 11.0 | 0.00 | 1.02 | 0.99 | 75 | 1003.4 |
| 20260507023034 | 47 | 290 | 3.0 | 13.0 | 0.00 | 1.02 | 0.99 | 79 | 1003.3 |
| 20260507021524 | 47 | 273 | 1.0 | 10.0 | 0.00 | 1.02 | 0.99 | 81 | 1003.3 |
| 20260507020021 | 48 | 223 | 1.0 | 11.0 | 0.00 | 1.02 | 0.99 | 80 | 1003.5 |
| 20260507014515 | 48 | 262 | 4.0 | 11.0 | 0.00 | 1.02 | 0.99 | 81 | 1003.3 |
| 20260507013008 | 48 | 234 | 6.0 | 18.0 | 0.00 | 1.02 | 0.99 | 80 | 1003.5 |
| 20260507011506 | 48 | 217 | 4.0 | 10.0 | 0.00 | 1.02 | 0.99 | 80 | 1003.4 |
| 20260507010107 | 48 | 317 | 2.0 | 18.0 | 0.00 | 1.02 | 0.99 | 81 | 1003.4 |
| 20260507004605 | 48 | 213 | 4.0 | 12.0 | 0.00 | 1.02 | 0.99 | 81 | 1003.7 |
| 20260507003049 | 48 | 194 | 5.0 | 14.0 | 0.00 | 1.02 | 0.99 | 79 | 1003.6 |
| 20260507001550 | 48 | 267 | 4.0 | 17.0 | 0.00 | 1.02 | 0.99 | 77 | 1003.6 |
| 20260507000037 | 48 | 276 | 5.0 | 16.0 | 0.00 | 1.02 | 0.99 | 79 | 1003.7 |
| 20260506234531 | 49 | 196 | 6.0 | 14.0 | 0.00 | 1.02 | 0.99 | 77 | 1003.8 |
| 20260506233027 | 49 | 166 | 6.0 | 15.0 | 0.00 | 1.02 | 0.99 | 69 | 1004.0 |
| 20260506231523 | 49 | 217 | 6.0 | 21.0 | 0.00 | 1.02 | 0.99 | 56 | 1004.2 |
| 20260506230015 | 49 | 234 | 5.0 | 15.0 | 0.00 | 1.02 | 0.99 | 45 | 1004.0 |
| 20260506224511 | 49 | 244 | 10.0 | 17.0 | 0.00 | 1.02 | 0.99 | 33 | 1004.3 |
| 20260506223008 | 49 | 246 | 8.0 | 17.0 | 0.00 | 1.02 | 0.99 | 32 | 1004.0 |
| 20260506221507 | 48 | 250 | 5.0 | 13.0 | 0.00 | 1.02 | 0.99 | 27 | 1004.1 |
| 20260506220057 | 48 | 290 | 4.0 | 13.0 | 0.00 | 1.02 | 0.99 | 27 | 1004.0 |
| 20260506214602 | 48 | 273 | 4.0 | 14.0 | 0.00 | 1.02 | 0.99 | 22 | 1004.0 |
| 20260506213049 | 48 | 277 | 2.0 | 12.0 | 0.00 | 1.02 | 0.99 | 18 | 1003.9 |
| 20260506211545 | 48 | 219 | 3.0 | 14.0 | 0.00 | 1.02 | 0.99 | 18 | 1003.8 |
| 20260506210037 | 48 | 252 | 7.0 | 15.0 | 0.00 | 1.02 | 0.99 | 20 | 1003.9 |
| 20260506204534 | 47 | 226 | 5.0 | 23.0 | 0.00 | 1.02 | 0.99 | 25 | 1004.0 |
| 20260506203030 | 47 | 255 | 8.0 | 22.0 | 0.00 | 1.02 | 0.99 | 29 | 1004.1 |
| 20260506201525 | 47 | 190 | 4.0 | 16.0 | 0.00 | 1.02 | 0.99 | 25 | 1003.8 |
| 20260506200021 | 47 | 222 | 5.0 | 16.0 | 0.01 | 1.02 | 0.99 | 21 | 1003.9 |
| 20260506194513 | 47 | 194 | 7.0 | 13.0 | 0.01 | 1.02 | 0.99 | 19 | 1003.8 |
| 20260506193008 | 47 | 296 | 8.0 | 16.0 | 0.02 | 1.02 | 0.99 | 15 | 1003.3 |
| 20260506191504 | 48 | 273 | 1.0 | 10.0 | 0.02 | 1.02 | 0.99 | 9 | 1003.0 |
| 20260506190059 | 48 | 231 | 4.0 | 16.0 | 0.02 | 1.02 | 0.98 | 8 | 1002.7 |
| 20260506184552 | 48 | 242 | 8.0 | 24.0 | 0.02 | 1.02 | 0.98 | 8 | 1002.5 |
| 20260506183052 | 48 | 345 | 3.0 | 15.0 | 0.13 | 1.02 | 0.97 | 10 | 1002.4 |
| 20260506181554 | 47 | 240 | 6.0 | 15.0 | 0.17 | 1.02 | 0.97 | 15 | 1002.7 |
| 20260506180053 | 47 | 243 | 7.0 | 18.0 | 0.18 | 1.02 | 0.97 | 17 | 1002.7 |
| 20260506174531 | 48 | 263 | 6.0 | 17.0 | 0.18 | 1.02 | 0.97 | 19 | 1002.5 |
| 20260506173028 | 49 | 267 | 5.0 | 11.0 | 0.04 | 0.90 | 0.83 | 11 | 1002.6 |
| 20260506171524 | 49 | 285 | 3.0 | 10.0 | 0.00 | 0.86 | 0.79 | 11 | 1002.1 |
| 20260506170018 | 49 | 317 | 3.0 | 10.0 | 0.00 | 0.86 | 0.79 | 9 | 1002.1 |
| 20260506164512 | 49 | 269 | 7.0 | 26.0 | 0.00 | 0.86 | 0.79 | 6 | 1002.3 |
| 20260506163009 | 49 | 264 | 4.0 | 10.0 | 0.00 | 0.91 | 0.79 | 4 | 1002.6 |
| 20260506161502 | 49 | 239 | 4.0 | 11.0 | 0.00 | 0.91 | 0.79 | 4 | 1002.8 |
| 20260506154551 | 49 | 325 | 2.0 | 13.0 | 0.00 | 0.91 | 0.79 | 4 | 1002.8 |
| 20260506153046 | 49 | 205 | 3.0 | 14.0 | 0.00 | 0.92 | 0.79 | 4 | 1002.9 |
| 20260506151546 | 50 | 286 | 3.0 | 16.0 | 0.00 | 0.92 | 0.79 | 4 | 1003.1 |
| 20260506150037 | 49 | 254 | 7.0 | 13.0 | 0.03 | 0.92 | 0.79 | 5 | 1003.3 |
| 20260506144536 | 49 | 234 | 6.0 | 12.0 | 0.06 | 0.92 | 0.79 | 5 | 1003.2 |
| 20260506143029 | 49 | 284 | 3.0 | 13.0 | 0.06 | 0.94 | 0.79 | 5 | 1003.1 |
| 20260506141531 | 48 | 291 | 1.0 | 13.0 | 0.06 | 0.94 | 0.79 | 5 | 1003.3 |
| 20260506140021 | 48 | 254 | 3.0 | 11.0 | 0.03 | 0.91 | 0.76 | 6 | 1003.2 |
| 20260506134545 | 48 | 237 | 3.0 | 16.0 | 0.02 | 0.88 | 0.73 | 6 | 1003.4 |
| 20260506133044 | 47 | 229 | 5.0 | 10.0 | 0.03 | 0.87 | 0.72 | 6 | 1003.7 |
| 20260506131533 | 48 | 284 | 5.0 | 14.0 | 0.06 | 0.87 | 0.72 | 6 | 1003.8 |
| 20260506130028 | 49 | 244 | 3.0 | 12.0 | 0.09 | 0.87 | 0.72 | 5 | 1003.9 |
| 20260506124525 | 49 | 221 | 1.0 | 8.0 | 0.09 | 0.87 | 0.72 | 5 | 1003.6 |
| 20260506123021 | 48 | 317 | 3.0 | 8.0 | 0.08 | 0.87 | 0.69 | 6 | 1003.7 |
| 20260506121513 | 48 | 192 | 2.0 | 7.0 | 0.05 | 0.83 | 0.65 | 6 | 1003.6 |
| 20260506120021 | 48 | 149 | 4.0 | 10.0 | 0.02 | 0.81 | 0.63 | 7 | 1003.8 |
| 20260506114506 | 48 | 265 | 3.0 | 18.0 | 0.02 | 0.80 | 0.62 | 7 | 1003.8 |
| 20260506113101 | 48 | 196 | 4.0 | 17.0 | 0.02 | 0.81 | 0.61 | 7 | 1003.6 |
| 20260506111552 | 48 | 345 | 3.0 | 12.0 | 0.02 | 0.81 | 0.61 | 7 | 1003.6 |
| 20260506110048 | 48 | 28 | 3.0 | 19.0 | 0.02 | 0.80 | 0.61 | 7 | 1003.7 |
| 20260506104548 | 48 | 221 | 5.0 | 15.0 | 0.03 | 0.80 | 0.61 | 7 | 1003.9 |
| 20260506103040 | 48 | 223 | 3.0 | 10.0 | 0.06 | 0.80 | 0.60 | 7 | 1004.0 |
| 20260506101532 | 48 | 315 | 2.0 | 12.0 | 0.12 | 0.79 | 0.59 | 9 | 1004.2 |
| 20260506100028 | 47 | 181 | 2.0 | 7.0 | 0.16 | 0.78 | 0.57 | 10 | 1004.3 |
| 20260506094524 | 47 | 130 | 1.0 | 5.0 | 0.19 | 0.77 | 0.56 | 12 | 1004.3 |
| 20260506093025 | 47 | 250 | 0.0 | 2.0 | 0.19 | 0.73 | 0.54 | 11 | 1004.3 |
| 20260506091548 | 47 | 38 | 0.0 | 7.0 | 0.17 | 0.67 | 0.47 | 12 | 1004.3 |
| 20260506090041 | 47 | 212 | 0.0 | 3.0 | 0.17 | 0.62 | 0.43 | 12 | 1004.4 |
| 20260506084538 | 47 | 258 | 0.0 | 7.0 | 0.18 | 0.57 | 0.39 | 13 | 1004.2 |
| 20260506083030 | 47 | 273 | 2.0 | 9.0 | 0.18 | 0.54 | 0.35 | 16 | 1004.2 |
| 20260506081526 | 47 | 284 | 1.0 | 9.0 | 0.17 | 0.50 | 0.30 | 17 | 1003.9 |
| 20260506073010 | 49 | 129 | 1.0 | 7.0 | 0.16 | 0.35 | 0.16 | 8 | 1003.8 |
| 20260506071505 | 48 | 191 | 0.0 | 5.0 | 0.13 | 0.33 | 0.13 | 8 | 1003.9 |
| 20260506061545 | 47 | 207 | 0.0 | 4.0 | 0.02 | 0.20 | 0.20 | 13 | 1003.9 |
| 20260506044524 | 47 | 260 | 1.0 | 3.0 | 0.00 | 0.17 | 0.17 | 18 | 1003.8 |